Change the Weather History Date:

Wednesday, September 12, 2012

  Actual Average (KLBF) Record (KLBF)
Temperature  
Mean Temperature 56 °F 64 °F  
Max Temperature 66 °F 80 °F 100 °F (1931)
Min Temperature 44 °F 49 °F 30 °F (1902)
Degree Days  
Heating Degree Days 8 4  
Month to date heating degree days 31  
Since 1 July heating degree days 51  
Cooling Degree Days 0 3  
Month to date cooling degree days 46  
Year to date cooling degree days 741  
Growing Degree Days 6 (Base 50)    
Moisture  
Dew Point 43 °F    
Average Humidity 67    
Maximum Humidity 91    
Minimum Humidity 27    
Precipitation  
Precipitation 0.16 in 0.04 in 1.97 in (1965)
Month to date precipitation 0.57  
Year to date precipitation 16.79  
Snow  
Snow 0.00 in 0.00 in T in (1989)
Month to date snowfall 0.0  
Since 1 July snowfall 0.0  
Since 1 September snowfall 0.0  
Snow Depth -    
Sea Level Pressure  
Sea Level Pressure 30.22 in    
Wind  
Wind Speed 12 mph (NE)    
Max Wind Speed 20 mph    
Max Gust Speed 26 mph    
Visibility 10 miles    
Events Rain    
T = Trace of Precipitation, MM = Missing Value Source: NWS Daily Summary

Daily Weather History Graph

Daily Weather History Graph

Search for Another Location

Airport or City:

Trip Planner

Search our weather history database for the weather conditions in past years. The results will help you decide how hot, cold, wet, or windy it might be!

Date:

Astronomy

Sep. 12, 2012 Rise Set
Actual Time 7:19 AM CDT 7:56 PM CDT
Civil Twilight 6:51 AM CDT 8:24 PM CDT
Nautical Twilight 6:18 AM CDT 8:57 PM CDT
Astronomical Twilight 5:44 AM CDT 9:31 PM CDT
Moon 3:35 AM CDT (9/12) 5:47 PM CDT (9/12)
Length of Visible Light 13h 32m
Length of Day
12h 36m
Waning Crescent, 13% of the Moon is Illuminated
Sep 12
Waning Crescent
Sep 15
New
Sep 22
First Quarter
Sep 29
Full
Oct 8
Last Quarter

Hourly Weather History & Observations

Time (CDT) Temp. Windchill Dew Point Humidity Pressure Visibility Wind Dir Wind Speed Gust Speed Precip Events Conditions
12:15 AM 68.2 °F - 32.9 °F 27% 30.03 in 10.0 mi North 11.5 mph 25.3 mph N/A   Clear
12:35 AM 67.5 °F - 32.9 °F 28% 30.01 in 10.0 mi North 18.4 mph 26.5 mph N/A   Clear
12:55 AM 66.6 °F - 32.7 °F 28% 30.02 in 10.0 mi North 17.3 mph 21.9 mph N/A   Clear
1:15 AM 65.7 °F - 33.1 °F 30% 30.05 in 10.0 mi North 12.7 mph 21.9 mph N/A   Clear
1:35 AM 65.3 °F - 33.3 °F 30% 30.05 in 10.0 mi North 16.1 mph 21.9 mph N/A   Clear
1:55 AM 64.4 °F - 34.5 °F 33% 30.06 in 10.0 mi NNE 13.8 mph 25.3 mph N/A   Clear
2:15 AM 63.5 °F - 34.9 °F 34% 30.05 in 10.0 mi NNE 18.4 mph 25.3 mph N/A   Clear
2:35 AM 62.8 °F - 36.5 °F 38% 30.06 in 10.0 mi NNE 17.3 mph - N/A   Clear
2:55 AM 62.1 °F - 36.5 °F 39% 30.07 in 10.0 mi NNE 18.4 mph 21.9 mph N/A   Clear
3:15 AM 61.5 °F - 36.1 °F 39% 30.06 in 10.0 mi NNE 19.6 mph 24.2 mph N/A   Clear
3:35 AM 61.0 °F - 35.1 °F 38% 30.05 in 10.0 mi NE 19.6 mph 24.2 mph N/A   Clear
3:55 AM 60.8 °F - 33.3 °F 36% 30.06 in 10.0 mi NE 18.4 mph 24.2 mph N/A   Clear
4:15 AM 60.8 °F - 34.0 °F 37% 30.07 in 10.0 mi NE 15.0 mph 20.7 mph N/A   Mostly Cloudy
4:35 AM 59.9 °F - 34.7 °F 39% 30.08 in 10.0 mi NE 17.3 mph 23.0 mph N/A   Overcast
4:55 AM 59.5 °F - 33.8 °F 38% 30.10 in 10.0 mi NE 13.8 mph 23.0 mph N/A   Overcast
5:15 AM 59.9 °F - 32.0 °F 35% 30.11 in 10.0 mi ENE 15.0 mph 20.7 mph N/A   Overcast
5:35 AM 59.0 °F - 32.5 °F 37% 30.13 in 10.0 mi NE 17.3 mph 23.0 mph N/A Rain Rain
5:55 AM 57.4 °F - 33.8 °F 41% 30.11 in 10.0 mi NE 13.8 mph 19.6 mph N/A   Light Drizzle
6:15 AM 56.8 °F - 34.7 °F 43% 30.14 in 10.0 mi NE 11.5 mph - N/A   Light Drizzle
6:35 AM 56.3 °F - 35.2 °F 45% 30.15 in 10.0 mi NNE 11.5 mph - N/A   Overcast
6:55 AM 54.9 °F - 37.2 °F 51% 30.15 in 10.0 mi NNE 13.8 mph - N/A Rain Light Rain
7:15 AM 53.1 °F - 39.7 °F 61% 30.17 in 10.0 mi NNE 9.2 mph - N/A   Light Drizzle
7:55 AM 49.1 °F - 44.4 °F 84% 30.19 in 7.0 mi NNE 6.9 mph - 0.06 in Rain Rain
8:15 AM 48.9 °F - 45.0 °F 86% 30.20 in 10.0 mi NE 6.9 mph - 0.02 in Rain Light Rain
8:35 AM 48.9 °F - 45.3 °F 87% 30.20 in 10.0 mi NE 6.9 mph - 0.03 in Rain Light Rain
8:55 AM 49.1 °F - 45.5 °F 87% 30.20 in 10.0 mi NE 5.8 mph - 0.04 in   Drizzle
9:15 AM 49.3 °F - 45.5 °F 87% 30.20 in 10.0 mi ENE 4.6 mph - N/A   Light Drizzle
9:35 AM 49.8 °F - 46.4 °F 88% 30.21 in 10.0 mi ENE 5.8 mph - N/A Rain Light Rain
9:55 AM 50.2 °F - 47.1 °F 89% 30.23 in 10.0 mi East 8.1 mph - 0.01 in Rain Light Rain
10:15 AM 50.4 °F - 47.5 °F 90% 30.26 in 5.0 mi NNE 6.9 mph - 0.03 in Rain Rain
10:35 AM 50.4 °F - 47.7 °F 90% 30.25 in 7.0 mi NE 6.9 mph - 0.05 in Rain Light Rain
10:55 AM 50.7 °F - 48.2 °F 91% 30.22 in 10.0 mi ENE 10.4 mph - 0.05 in   Overcast
11:15 AM 51.6 °F - 48.7 °F 90% 30.24 in 10.0 mi NE 10.4 mph - N/A   Overcast
11:35 AM 52.2 °F - 49.1 °F 89% 30.26 in 10.0 mi NE 10.4 mph - N/A   Overcast
11:55 AM 52.9 °F - 49.5 °F 88% 30.25 in 10.0 mi NNE 11.5 mph - N/A   Overcast
12:15 PM 53.2 °F - 49.8 °F 88% 30.26 in 10.0 mi NNE 8.1 mph - N/A   Overcast
12:35 PM 54.0 °F - 50.2 °F 87% 30.26 in 10.0 mi NE 12.7 mph 17.3 mph N/A   Overcast
12:55 PM 55.4 °F - 50.5 °F 84% 30.27 in 10.0 mi ENE 10.4 mph - N/A   Overcast
1:15 PM 55.4 °F - 49.8 °F 81% 30.27 in 10.0 mi NE 10.4 mph - N/A   Overcast
1:35 PM 55.9 °F - 49.6 °F 79% 30.26 in 10.0 mi ENE 15.0 mph - N/A   Mostly Cloudy
1:55 PM 56.7 °F - 49.8 °F 78% 30.26 in 10.0 mi NE 11.5 mph 16.1 mph N/A   Mostly Cloudy
2:15 PM 56.3 °F - 49.1 °F 77% 30.27 in 10.0 mi NE 12.7 mph 18.4 mph N/A   Mostly Cloudy
2:35 PM 56.3 °F - 49.3 °F 77% 30.28 in 10.0 mi ENE 10.4 mph - N/A   Mostly Cloudy
2:55 PM 56.3 °F - 48.7 °F 76% 30.28 in 10.0 mi NE 8.1 mph - N/A   Mostly Cloudy
3:15 PM 56.3 °F - 48.4 °F 75% 30.28 in 10.0 mi ENE 8.1 mph - N/A   Scattered Clouds
3:35 PM 56.5 °F - 48.2 °F 74% 30.29 in 10.0 mi NE 9.2 mph - N/A   Scattered Clouds
3:55 PM 56.8 °F - 47.8 °F 72% 30.29 in 10.0 mi ENE 9.2 mph - N/A   Mostly Cloudy
4:15 PM 56.8 °F - 47.5 °F 71% 30.29 in 10.0 mi ENE 10.4 mph - N/A   Scattered Clouds
4:55 PM 56.7 °F - 46.9 °F 70% 30.30 in 10.0 mi ENE 11.5 mph - N/A   Mostly Cloudy
5:15 PM 56.5 °F - 46.8 °F 70% 30.30 in 10.0 mi ENE 8.1 mph - N/A   Scattered Clouds
5:35 PM 56.3 °F - 46.0 °F 68% 30.31 in 10.0 mi ENE 9.2 mph - N/A   Scattered Clouds
5:55 PM 56.3 °F - 45.9 °F 68% 30.31 in 10.0 mi East 9.2 mph - N/A   Clear
6:15 PM 55.9 °F - 45.9 °F 69% 30.32 in 10.0 mi ENE 6.9 mph - N/A   Clear
6:35 PM 55.6 °F - 46.4 °F 71% 30.32 in 10.0 mi ENE 5.8 mph - N/A   Clear
6:55 PM 55.4 °F - 45.5 °F 69% 30.33 in 10.0 mi NE 4.6 mph - N/A   Clear
7:35 PM 54.5 °F - 45.1 °F 71% 30.33 in 10.0 mi ENE 4.6 mph - N/A   Clear
7:55 PM 53.1 °F - 44.4 °F 72% 30.33 in 10.0 mi ENE 3.5 mph - N/A   Clear
8:15 PM 52.0 °F - 44.6 °F 76% 30.34 in 10.0 mi ENE 3.5 mph - N/A   Clear
8:35 PM 50.9 °F - 44.6 °F 79% 30.34 in 10.0 mi Calm Calm - N/A   Clear
8:55 PM 50.2 °F - 44.8 °F 82% 30.34 in 10.0 mi Calm Calm - N/A   Clear
9:15 PM 50.9 °F - 44.6 °F 79% 30.35 in 10.0 mi Calm Calm - N/A   Clear
9:35 PM 49.3 °F - 44.6 °F 84% 30.35 in 10.0 mi Calm Calm - N/A   Clear
9:55 PM 48.9 °F - 44.4 °F 84% 30.35 in 10.0 mi Calm Calm - N/A   Clear
10:15 PM 47.3 °F - 43.7 °F 87% 30.35 in 10.0 mi Calm Calm - N/A   Clear
10:35 PM 46.8 °F - 43.7 °F 89% 30.36 in 10.0 mi WNW 4.6 mph - N/A   Clear
10:55 PM 45.9 °F 44.6 °F 43.0 °F 90% 30.37 in 10.0 mi West 3.5 mph - N/A   Clear
11:15 PM 45.9 °F 44.6 °F 43.3 °F 91% 30.37 in 10.0 mi West 3.5 mph - N/A   Clear
11:35 PM 45.5 °F - 43.0 °F 91% 30.37 in 10.0 mi Calm Calm - N/A   Clear
11:55 PM 44.6 °F 42.2 °F 42.3 °F 91% 30.37 in 10.0 mi West 4.6 mph - N/A   Clear